Location: �bnet
(46.9957°N, 8.4908°E)
Time: 23:46:08
(UTC+00:00)

BREEZE-M DEB (TANK) - Pass Details

Date: 11 May 2021
Orbit: 320 x 13078 km, 49.7° (Epoch: 17 June)

Event Time Altitude Azimuth Distance (km) Brightness Sun altitude
Rises 22:31:40 0° 289° (WNW) 9,941 9.6 -23.9°
Reaches altitude 10° 22:41:17 10° 290° (WNW) 6,754 8.7 -24.2°
Maximum altitude 22:56:16 81° 206° (SSW) 1,132 4.1 -24.6°
Enters shadow 22:57:49 49° 127° (SE) 1,165 4.1 -24.6°
